Regional Weather Roundup
Issued by NWS

Home | Current Version | Previous Version | Text Only | Print | Product List | Glossary On
Versions: 1 2 3 4 5 6 7 8 9 10 11 12 13 14 15 16 17 18 19 20 21 22 23 24 25 26 27
000
ASUS42 KFFC 271203
RWRGA
WEATHER ROUNDUP FOR GEORGIA
NATIONAL WEATHER SERVICE PEACHTREE CITY GA
800 AM EDT SAT AUG 27 2016

NOTE: "FAIR" INDICATES FEW OR NO CLOUDS BELOW 12,000 FEET WITH NO
SIGNIFICANT WEATHER AND/OR OBSTRUCTIONS TO VISIBILITY.

* = USE WITH CAUTION. THE STATIONS MARKED WITH AN ASTERISK MAY NOT
REPORT WEATHER SUCH AS PRECIPITATION, FOG, OR THUNDER AND ARE NOT
QUALITY CONTROLLED BY NWS.

THE REMARK "TC" DENOTES TEMPERATURE READING IN DEGREES CELSIUS.

GAZ001>058-271300-
NORTH GEORGIA

CITY           SKY/WX    TMP DP  RH WIND       PRES   REMARKS
ATLANTA        PTCLDY    75  71  87 E3        30.12R
6HR MIN TEMP:  74; 6HR MAX TEMP:  79;

ATHENS         SUNNY     73  73 100 CALM      30.11R FOG
6HR MIN TEMP:  71; 6HR MAX TEMP:  74;

CHAMBLEE       MOCLDY    75  71  87 CALM      30.12R
6HR MIN TEMP:  73; 6HR MAX TEMP:  76;

PEACHTREE CITY MOCLDY    71  70  96 CALM      30.12R
6HR MIN TEMP:  69; 6HR MAX TEMP:  73;

ROME           MOCLDY    72  70  93 CALM      30.10R
6HR MIN TEMP:  71; 6HR MAX TEMP:  74;

WEST ATLANTA   CLEAR     72  69  90 CALM      30.11R
6HR MIN TEMP:  72; 6HR MAX TEMP:  76;

GAINESVILLE    SUNNY     74  68  81 E5        30.15R
6HR MIN TEMP:  72; 6HR MAX TEMP:  74;

CARTERSVILLE   PTCLDY    73  71  93 E3        30.11R
6HR MIN TEMP:  71; 6HR MAX TEMP:  75;



CITY           SKY/WX    TMP DP  RH WIND       PRES   REMARKS
DALTON*        CLEAR     68  68 100 CALM      30.11R
LAWRENCEVILLE*   N/A     73  72  94 NE7       30.12R
MARIETTA       MOCLDY    73  71  95 E2        30.12R
KENNESAW*      PTCLDY    73  70  88 E3        30.09S
CANTON*        PTCLDY    70  68  94 CALM      30.15R FOG
BLAIRSVILLE*   FOG      N/A N/A N/A MISG      30.18R VSB<1/4
$$

GAZ059>098-102>109-271300-
CENTRAL GEORGIA

CITY           SKY/WX    TMP DP  RH WIND       PRES   REMARKS
AUGUSTA-BUSH   MOSUNNY   74  72  93 CALM      30.09R
6HR MIN TEMP:  70; 6HR MAX TEMP:  74;

AUGUSTA-DANIEL SUNNY     79  72  79 CALM      30.11R
6HR MIN TEMP:  76; 6HR MAX TEMP:  80;

COLUMBUS       CLEAR     74  68  81 E3        30.08R
6HR MIN TEMP:  72; 6HR MAX TEMP:  79;

MACON          MOSUNNY   72  69  90 CALM      30.08R
6HR MIN TEMP:  69; 6HR MAX TEMP:  75;

ROBINS AFB     MOSUNNY   72  69  91 N3        30.07R


CITY           SKY/WX    TMP DP  RH WIND       PRES   REMARKS
LAGRANGE*      CLEAR     71  71 100 CALM      30.09S
MILLEDGEVILLE* MOSUNNY   73  73 100 CALM      30.09R
$$

GAZ099>101-110>166-271300-
SOUTH GEORGIA

CITY           SKY/WX    TMP DP  RH WIND       PRES   REMARKS
SAVANNAH       MOSUNNY   73  70  90 N3        30.07R
6HR MIN TEMP:  70; 6HR MAX TEMP:  73;

VALDOSTA       CLOUDY    71  71 100 E6        30.04R
6HR MIN TEMP:  70; 6HR MAX TEMP:  74;

ALMA           SUNNY     68  68 100 CALM      30.06R
6HR MIN TEMP:  64; 6HR MAX TEMP:  68;

ST SIMONS      CLOUDY    76  74  93 N5        30.03R
6HR MIN TEMP:  74; 6HR MAX TEMP:  78; 6HR PCP:  0.04;

FT STEWART     SUNNY     72  70  91 NE3       30.04R
ALBANY         CLEAR     72  68  87 NE3       30.07R
HUNTER AFB     SUNNY     76  75  98 N3        30.04R
MOODY AFB      CLOUDY    69  67  94 E5        30.04R
BRUNSWICK      CLOUDY    73  73 100 CALM      30.05R


CITY           SKY/WX    TMP DP  RH WIND       PRES   REMARKS
BAINBRIDGE*    PTCLDY    72  70  94 CALM      30.04R
MOULTRIE*      SUNNY     70  68  94 CALM      30.05R
VIDALIA*       SUNNY     72  72 100 E3        30.07S
WAYCROSS*        N/A     71  71 100 CALM      30.05S
DOUGLAS*       SUNNY     70  68  94 E3        30.08R
$$




USA.gov is the U.S. government's official web portal to all federal, state and local government web resources and services.